Regional Weather Roundup
Issued by NWS

Home | Current Version | Previous Version | Graphics & Text | Print | Product List | Glossary Off
Versions: 1 2 3 4 5 6 7 8 9 10 11 12 13 14 15 16 17 18 19 20 21 22 23 24 25 26 27 28 29 30 31 32 33 34 35 36 37 38 39 40 41 42 43 44 45 46 47 48 49 50

000
ASUS43 KMKX 310800
RWRWI

WISCONSIN REGIONAL WEATHER ROUNDUP
NATIONAL WEATHER SERVICE MILWAUKEE/SULLIVAN WI
300 AM CDT TUE MAY 31 2016

NOTE: "FAIR" INDICATES FEW OR NO CLOUDS BELOW 12,000 FEET WITH NO
SIGNIFICANT WEATHER AND/OR OBSTRUCTIONS TO VISIBILITY.

WIZ001-002-006>008-014>016-023>028-310900-
NORTHWEST WISCONSIN

CITY           SKY/WX    TMP DP  RH WIND       PRES   REMARKS
SUPERIOR ARPT  CLOUDY    45  43  91 NE16G26   30.01S
ASHLAND        PTCLDY    48  43  82 NE10      30.01S
HAYWARD        CLOUDY    61  50  67 E7        29.96S
SIREN          CLOUDY    64  55  72 E3        29.91S
CUMBERLAND     CLOUDY    63  54  72 S7        29.94R
RICE LAKE      CLOUDY    67  54  61 S10       29.95R
CHETEK         DRIZZLE   66  56  70 SE12G17   29.94S
LADYSMITH      MOCLDY    63  54  74 SE5       29.98S
EAU CLAIRE     NOT AVBL
MENOMONIE      CLOUDY    66  56  71 E10       29.94F
NEW RICHMOND   PTCLDY    66  54  64 SE8       29.90S
OSCEOLA        CLOUDY    68  55  62 SE9       29.91F
$$

WIZ003>005-009-010-017-018-310900-
NORTH CENTRAL WISCONSIN

CITY           SKY/WX    TMP DP  RH WIND       PRES   REMARKS
MANITOWISH WTR NOT AVBL
ARBOR VITAE    CLOUDY    57  49  73 E5        30.02S
WOODRUFF       CLOUDY    57  49  73 E5        30.02S
RHINELANDER    CLOUDY    56  48  74 E7        30.03R
EAGLE RIVER      N/A     54  47  76 E8        30.04R
LAND O LAKES   CLOUDY    54  48  81 E5        30.05F
PHILLIPS       CLOUDY    57  51  80 E5        29.99S
TOMAHAWK       CLOUDY    55  53  94 CALM      30.01S
MEDFORD        CLOUDY    62  52  70 S6        29.99R
MERRILL        CLOUDY    55  54  97 CALM      30.00S
$$

WIZ029-030-035-036-043>047-310900-
CENTRAL WISCONSIN

CITY           SKY/WX    TMP DP  RH WIND       PRES   REMARKS
WAUSAU         CLOUDY    60  55  83 E6        29.98S
MOSINEE        CLOUDY    59  52  77 CALM      30.00S
MARSHFIELD     CLOUDY    63  53  70 SW8       29.99S
STEVENS POINT  CLOUDY    56  54  94 CALM      30.01R
WAUPACA        CLOUDY    59  59  99 CALM      29.98S
WAUTOMA        LGT RAIN N/A N/A N/A SW5       30.02R
WISC RAPIDS    CLOUDY    65  52  62 W5        30.02R
CAMP DOUGLAS   NOT AVBL
$$

WIZ011>013-019>022-031-037>040-048>050-310900-
NORTHEAST WISCONSIN

CITY           SKY/WX    TMP DP  RH WIND       PRES   REMARKS
ANTIGO         CLOUDY    56  49  77 SE13      30.03R
SHAWANO        PTCLDY    62  53  72 E10       30.03S
OCONTO         MOCLDY    56  53  89 NE5       30.04R
STURGEON BAY   NOT AVBL
GREEN BAY      CLOUDY    60  55  83 NE16      30.02R
MANITOWOC      NOT AVBL
APPLETON       PTCLDY    63  54  72 CALM      29.98S
CLINTONVILLE   PTCLDY    59  54  82 NE8       30.01R
OSHKOSH        MOCLDY    60  56  86 S5        29.98S
$$

WIZ032>034-041-042-053>061-310900-
SOUTHWEST WISCONSIN

CITY           SKY/WX    TMP DP  RH WIND       PRES   REMARKS
LA CROSSE      PTCLDY    65  60  84 E7        29.91F
SPARTA         MOCLDY    62  61  97 CALM      29.99F
VIROQUA        CLOUDY    62  60  93 CALM      29.98F
BOSCOBEL       NOT AVBL
PRAIRIE DU CHI MOCLDY    62  60  95 SE6       29.96S
PLATTEVILLE    CLOUDY    64  63  97 N7        29.98F
$$

WIZ056-057-062-063-064-067-068-310900-
SOUTH CENTRAL WISCONSIN

CITY           SKY/WX    TMP DP  RH WIND       PRES   REMARKS
REEDSBURG      CLOUDY    66  55  66 W3        30.00S
BARABOO/DELLS  CLOUDY    67  53  61 CALM      30.02S
LONE ROCK      NOT AVBL
MINERAL POINT  LGT RAIN  64  57  77 N7        30.00F
MADISON        LGT RAIN  67  58  72 CALM      30.00R
MIDDLETON      CLOUDY    66  58  74 W5        30.02R
WATERTOWN      PTCLDY    63  57  81 SE3       29.99S
MONROE         CLOUDY    68  54  60 SW7       30.00R
JANESVILLE     MOCLDY    63  55  77 CALM      29.98S
$$

WIZ051-052-058>065-066-070>072-310900-
SOUTHEAST WISCONSIN

CITY           SKY/WX    TMP DP  RH WIND       PRES   REMARKS
MILWAUKEE      CLOUDY    62  56  80 E3        30.00S
WAUKESHA       CLOUDY    63  54  72 SE3       30.01S
MILWAUKEE/TIMM MOCLDY    59  52  77 CALM      30.01S
RACINE         CLOUDY    63  55  75 CALM      30.02R
BURLINGTON     MOCLDY    59  57  93 CALM      30.00S
KENOSHA        PTCLDY    61  56  83 CALM      30.00S
FOND DU LAC    PTCLDY    62  57  83 CALM      29.99S
SHEBOYGAN      PTCLDY    58  55  90 SW3       29.99F
WEST BEND      PTCLDY    55  55 100 CALM      30.00S
JUNEAU         CLOUDY    64  56  75 SE7       30.00S
$$

LSZ147-162-310900-
LAKE SUPERIOR

STATION/POSITION TIME  TEMP    WIND        PRES    WAVE
                       AIR SEA DIR/SP/G            HT/PER
                 (UTC) (F)     (DEG/KT/KT) (MB)    (FT/S)
W MID LAKE BUOY  0650   42 38   90/ 12/ 14 1019.4R   2/ 4
DEVILS ISLAND    0700   45      80/ 22/ 25 1017.9F
SAXON HARBOR     0700   53      60/  9/ 11 1015.2F
$$

LMZ867-665-643>646-310900-
LAKE MICHIGAN

STATION/POSITION TIME  TEMP    WIND        PRES    WAVE
                       AIR SEA DIR/SP/G            HT/PER
                 (UTC) (F)     (DEG/KT/KT) (MB)    (FT/S)
CHAMBERS ISLAND  0740   55      10/ 19/ 20 1017.3R
N MID LAKE BUOY  0650   53 50  360/ 14/ 16 1016.3R   1/ 2
NORTHPORT PIER   0700   55     360/  8/ 12 1016.9R
KEWAUNEE LAKESHO 0700   58      20/ 12/ 16 1015.8R
SHEBOYGAN LAKESH 0700   65     230/  6/  7 1015.9F
PORT WASHINGTON  0700   59     260/  2/  2 1016.6S
S MID LAKE BUOY  0650   61 57  120/  4/  6 1015.4F   0
KENOSHA   LAKESH 0700   63     200/  4/  6 1015.9R
$$

TC  - TEMPERATURE IN CELSIUS
VSB - VISIBILITY IN STATUTE MILES
WCI - WIND CHILL INDEX
HX  - HEAT INDEX





USA.gov is the U.S. government's official web portal to all federal, state and local government web resources and services.